ISS DEB (44304 NORAD) Tracking and Keplerian Element Data

This shows tracking and keplerian element data for the satellite.

Feedback or suggestion? Click here.




ElementValue
Catalog44304
NameISS DEB
Epoch Orbit757
Epoch Day198.55158683
Epoch Year2019
RAAN210.3185
Inclination51.6398
Eccentricity0.0006491
Argument of Perigee137.3315
Mean Anonmoly222.818
Mean Motion15.52359455
Decay Rate5.951E-05
L11 44304U 98067QB 19198.55158683 .00005951 00000-0 10331-3 0 9995
L22 44304 51.6398 210.3185 0006491 137.3315 222.8180 15.52359455 7578

Live tracking and technical data element details for ISS DEB (NORAD 44304). ISS DEB can be tracked NOW for your location showing map with azimuth and elevation plus other details from your city location.

Track the satellite on the map from your city or location and see movement details for azimuth, elevation, latitude, longitude, range, height, and movement on the map or in text.







IsCatalogInMostPopularTable: catalog: 44304, numindb: 12
Update: records affected: 1



GetName: 44304 ISS DEB

Hit Count: updated at: Fri, 19 Jul 2019 08:12:27 GMT